Flag for India Weather past 2 weeks in Maraimalai Nagar, Tamil Nadu, India

86 °F

Scattered clouds.

Feels Like: 93 °F
Forecast: 74 / 77 °F
Wind: 9 mph from North

Location: Madras / Minambakkam

Current Time: Nov 28, 2015 at 12:17:12 PM

Latest Report: Nov 28, 2015 at 11:30 AM

Visibility: 4 mi

Pressure: 29.92 "Hg

Humidity: 66%

Dew point: 73 °F

Location of Maraimalai NagarLocation

Historic Weather in Maraimalai Nagar — Graph


Maraimalai Nagar temperature yesterday

Maximum temperature yesterday: 88 °F (at 12:00 PM)
Minimum temperature yesterday: 75 °F (at 9:30 PM)
Average temperature yesterday: 80 °F

Past Weeks' High & Low Weather Summary

High88 °F (Nov 20, 1:00 PM)100% (Nov 13, 1:40 PM)29.98 "Hg (Nov 13, 1:40 PM)
Low73 °F (Nov 17, 6:00 AM)55% (Nov 25, 12:30 PM)29.65 "Hg (Nov 16, 2:30 PM)
Average79 °F89%29.83 "Hg
* Reported Nov 13 10:40 AM — Nov 28 10:30 AM, Maraimalai Nagar, Weather by CustomWeather, © 2015

Note: Actual official high and low records may vary slightly from our data, if they occured in-between our weather recording intervals... More about our weather records


Maraimalai Nagar weather history for previous 24 hours

Time TempWeatherWind HumidityBarometerVisibility
10:30 AM
Sat, Nov 28
84 °FPassing clouds.7 mph66%29.95 "Hg4 mi
10:00 AM84 °FPassing clouds.8 mph66%29.95 "Hg4 mi
9:30 AM82 °FPassing clouds.3 mph70%29.95 "Hg4 mi
9:00 AM82 °FPassing clouds.6 mph74%29.95 "Hg4 mi
8:30 AM81 °FPassing clouds.5 mph79%29.95 "Hg4 mi
8:00 AM79 °FHaze.5 mph79%29.92 "Hg3 mi
7:30 AM77 °FFog.5 mph89%29.92 "Hg2 mi
7:00 AM73 °FFog.No wind94%29.89 "Hg2 mi
5:30 AM73 °FFog.No wind94%29.86 "Hg2 mi
5:00 AM73 °FFog.No wind94%29.86 "Hg2 mi
4:30 AM73 °FFog.No wind94%29.86 "Hg2 mi
4:00 AM73 °FFog.No wind94%29.83 "Hg2 mi
3:30 AM73 °FFog.No wind100%29.83 "Hg2 mi
3:00 AM73 °FFog.No wind100%29.83 "Hg2 mi
2:30 AM73 °FPassing clouds.No wind100%29.86 "Hg4 mi
2:00 AM75 °FPassing clouds.No wind94%29.86 "Hg4 mi
1:30 AM75 °FPassing clouds.No wind94%29.86 "Hg4 mi
1:00 AM75 °FPassing clouds.No wind94%29.86 "Hg4 mi
12:30 AM73 °FPassing clouds.No wind94%29.89 "Hg4 mi
12:00 AM75 °FPassing clouds.No wind89%29.89 "Hg4 mi
11:30 PM
Fri, Nov 27
75 °FPassing clouds.No wind89%29.89 "Hg4 mi
11:00 PM75 °FPassing clouds.No wind89%29.89 "Hg4 mi
10:30 PM75 °FPassing clouds.No wind89%29.89 "Hg4 mi
10:00 PM75 °FPassing clouds.No wind94%29.89 "Hg4 mi
9:30 PM75 °FPassing clouds.No wind89%29.89 "Hg4 mi
9:00 PM77 °FPassing clouds.No wind83%29.89 "Hg4 mi
8:30 PM77 °FPassing clouds.No wind83%29.86 "Hg4 mi
8:00 PM77 °FPassing clouds.No wind83%29.86 "Hg4 mi
7:30 PM77 °FPassing clouds.No wind83%29.86 "Hg4 mi
7:00 PM77 °FPassing clouds.No wind83%29.83 "Hg4 mi
6:30 PM77 °FPassing clouds.5 mph79%29.83 "Hg4 mi
6:00 PM77 °FScattered clouds.5 mph79%29.80 "Hg4 mi
5:30 PM81 °FScattered clouds.6 mph70%29.80 "Hg5 mi
5:00 PM82 °FScattered clouds.7 mph70%29.80 "Hg5 mi
4:30 PM82 °FScattered clouds.9 mph70%29.77 "Hg5 mi
4:00 PM84 °FScattered clouds.8 mph66%29.77 "Hg5 mi
3:30 PM84 °FScattered clouds.9 mph66%29.77 "Hg5 mi
3:00 PM84 °FScattered clouds.8 mph66%29.77 "Hg5 mi
2:30 PM86 °FScattered clouds.7 mph62%29.77 "Hg5 mi
2:00 PM86 °FScattered clouds.9 mph62%29.80 "Hg5 mi
1:30 PM86 °FScattered clouds.6 mph62%29.80 "Hg4 mi
12:30 PM88 °FScattered clouds.12 mph59%29.83 "Hg4 mi
12:00 PM88 °FScattered clouds.8 mph59%29.86 "Hg4 mi
Weather by CustomWeather, © 2015

See weather overviewHow to use our weather pages